[[{"header":{"parameterUnit":"m.s-1","parameterCategory":1,"la1":30.2991,"la2":30.254,"lo1":-89.0895,"lo2":-89.0444,"dy":0.0017,"dx":0.0017,"nx":28,"ny":28,"refTime":"2025-03-31T09:00:00:Z","depth":0,"parameterNumber":2,"parameterNumberName":"U-component_of_WINDS"},"data":[0,0,0,0,0,0,0,0,0,0,0,0,0,0,0,0,0,0,0,0,0,0,0,0,0,0,0,0,0,0,0,0,0,0,0,0,0,0,0,0,0,0,0,0,0,0,0,0,0,0,0,0,0,0,0,0,0,0,-0.9173,-0.9175,0,-0.9342,-0.9344,-0.9346,-0.9437,-0.9437,-0.9437,-0.9437,-0.9612,-0.9616,-0.962,0,0,0,0,0,0,0,0,0,0,0,0,0,-0.8932,-0.8935,-0.9173,-0.9175,-0.9177,-0.9341,-0.9344,-0.9346,-0.9437,-0.9437,-0.9437,-0.9437,-0.961,-0.9616,-0.9621,0,0,0,0,0,0,0,0,0,0,0,0,0,-0.9062,-0.8937,-0.9173,-0.9242,-0.925,-0.9341,-0.9344,-0.9347,-0.9437,-0.9437,-0.9437,-0.9437,-0.9609,-0.9615,-0.9622,-0.9657,0,0,-0.9642,-0.9645,0,0,0,0,0,0,0,0,-0.9054,-0.9071,-0.923,-0.9238,-0.9247,-0.9368,-0.9323,-0.9451,-0.9436,-0.9366,-0.9437,-0.9438,-0.9531,-0.9544,-0.9575,-0.9665,-0.9673,-0.9643,-0.9647,-0.965,-0.9652,0,0,0,0,0,0,0,-0.9045,-0.9064,-0.924,-0.9232,-0.9242,-0.9266,-0.9284,-0.9347,-0.9445,-0.9372,-0.9379,-0.9398,-0.9535,-0.9568,-0.958,-0.9675,-0.9642,-0.9648,-0.9653,-0.9655,-0.9804,-0.9804,0,0,0,0,0,0,-0.9025,-0.9056,-0.9235,-0.9245,-0.9149,-0.927,-0.9291,-0.9329,-0.9444,-0.9462,-0.9397,-0.9401,-0.9557,-0.9572,-0.9586,-0.9635,-0.965,-0.9656,-0.966,-0.9804,-0.9804,-0.9804,0,0,0,0,0,0,-0.9019,-0.904,-0.9228,-0.9152,-0.9178,-0.9274,-0.9316,-0.9332,-0.9365,-0.9463,-0.9481,-0.9413,-0.9557,-0.9577,-0.9639,-0.9643,-0.9659,-0.9665,-0.9804,-0.9804,-0.9804,-0.9733,0,0,0,0,0,0,-0.9012,-0.9037,-0.9051,-0.9152,-0.9182,-0.9277,-0.9316,-0.9335,-0.9376,-0.9383,-0.9482,-0.9499,-0.9559,-0.9628,-0.9645,-0.9652,-0.967,-0.9804,-0.9804,-0.9804,-0.9736,-0.9731,-0.9727,0,0,0,0,0,-0.9003,-0.9025,-0.9051,-0.9072,-0.9201,-0.9277,-0.9294,-0.9362,-0.9376,-0.9391,-0.9454,-0.9496,-0.9639,-0.9634,-0.9654,-0.9663,-0.9804,-0.9804,-0.9804,-0.9738,-0.9732,-0.9727,0,0,0,0,0,0,-0.8923,-0.9039,-0.907,-0.9125,-0.919,-0.9292,-0.9313,-0.9353,-0.9416,-0.942,-0.9502,-0.9524,-0.9578,-0.9627,-0.9618,-0.9703,-0.9726,-0.973,-0.9669,-0.9664,-0.966,-0.9647,-0.9676,0,0,0,0,0,-0.8911,-0.8962,-0.9062,-0.9101,-0.9132,-0.9216,-0.9252,-0.9299,-0.937,-0.9398,-0.9466,-0.9533,-0.9594,-0.9632,-0.9693,-0.9743,-0.9767,-0.976,-0.9755,-0.9751,-0.9753,-0.9784,-0.9782,-0.9803,-0.9803,-0.9803,0,0,-0.8889,-0.8959,-0.8986,-0.9087,-0.9143,-0.9194,-0.9239,-0.9292,-0.9331,-0.9406,-0.9469,-0.9521,-0.9602,-0.9658,-0.9686,-0.9701,-0.9752,-0.9751,-0.9746,-0.9751,-0.9783,-0.9781,-0.9779,-0.9803,-0.9803,-0.9803,0,0,-0.8874,-0.8932,-0.8971,-0.9026,-0.9109,-0.9165,-0.9174,-0.927,-0.9307,-0.9371,-0.9429,-0.9477,-0.9579,-0.9635,-0.9676,-0.9682,-0.9723,-0.97,-0.9676,-0.9705,-0.9704,-0.9702,-0.9705,-0.9704,-0.9702,-0.9702,-0.9702,0,-0.8835,-0.8914,-0.8986,-0.9035,-0.9078,-0.9148,-0.9188,-0.9238,-0.9338,-0.9366,-0.938,-0.951,-0.957,-0.964,-0.9641,-0.9673,-0.9686,-0.9689,-0.9698,-0.9698,-0.9698,-0.9701,-0.9701,-0.9699,-0.9699,-0.9699,-0.97,0,-0.8863,-0.8917,-0.8938,-0.9032,-0.9077,-0.9122,-0.9201,-0.9238,-0.9281,-0.9335,-0.94,-0.9474,-0.9551,-0.9571,-0.9614,-0.9648,-0.9654,-0.9682,-0.9707,-0.9691,-0.9695,-0.9697,-0.9694,-0.9695,-0.9696,-0.9697,0,0,-0.8802,-0.8934,-0.8941,-0.8984,-0.9082,-0.9125,-0.9173,-0.9248,-0.9279,-0.9345,-0.9388,-0.9473,-0.9499,-0.9546,-0.9596,-0.9621,-0.9621,-0.9647,-0.965,-0.9639,-0.9664,-0.9642,-0.9642,-0.9649,-0.965,-0.965,-0.9657,0,-0.8801,-0.8889,-0.8955,-0.9018,-0.9069,-0.9136,-0.9179,-0.9243,-0.9296,-0.9347,-0.9406,-0.9465,-0.9495,-0.9524,-0.9552,-0.9615,-0.9627,-0.9616,-0.969,-0.9692,-0.9667,-0.9644,-0.9622,-0.9624,-0.9659,-0.966,-0.966,0,-0.8811,-0.8874,-0.8942,-0.9034,-0.9058,-0.9095,-0.9169,-0.9217,-0.9292,-0.9329,-0.9381,-0.9432,-0.9487,-0.9506,-0.9583,-0.9573,-0.9608,-0.9644,-0.9645,-0.9655,-0.9674,-0.9653,-0.9627,-0.9627,-0.9663,-0.9663,-0.9663,0,-0.8759,-0.8861,-0.8916,-0.8951,-0.906,-0.9084,-0.913,-0.9206,-0.9246,-0.9312,-0.9339,-0.941,-0.9448,-0.9502,-0.9571,-0.9579,-0.9641,-0.9666,-0.9673,-0.9671,-0.9683,-0.9681,-0.9662,-0.9705,-0.9705,-0.9705,-0.9705,0,-0.8751,-0.879,-0.8894,-0.8927,-0.8973,-0.9049,-0.9092,-0.9145,-0.9211,-0.9257,-0.932,-0.9361,-0.945,-0.9502,-0.9557,-0.9612,-0.9629,-0.966,-0.9674,-0.9655,-0.9651,-0.9678,-0.968,-0.9705,-0.9705,-0.9705,-0.9705,0,-0.87,-0.8772,-0.8835,-0.8933,-0.8958,-0.8988,-0.9072,-0.9107,-0.9163,-0.922,-0.9237,-0.9326,-0.939,-0.9465,-0.9554,-0.9591,-0.9642,-0.9663,-0.9616,-0.9624,-0.9627,-0.9625,-0.9624,-0.9628,-0.9668,-0.9668,-0.9668,0,-0.869,-0.8722,-0.8822,-0.8857,-0.8901,-0.8956,-0.8998,-0.9074,-0.9115,-0.9203,-0.9228,-0.9297,-0.9357,-0.9457,-0.953,-0.9599,-0.9622,-0.9617,-0.9633,-0.9612,-0.9622,-0.9619,-0.9622,-0.9612,-0.9611,-0.961,-0.961,0,-0.8664,-0.8698,-0.8755,-0.8824,-0.8872,-0.8931,-0.8993,-0.9017,-0.9106,-0.9149,-0.9216,-0.9262,-0.9353,-0.9422,-0.95,-0.9549,-0.9594,-0.9604,-0.961,-0.9589,-0.9561,-0.9576,-0.9604,-0.9604,-0.9604,-0.9605,-0.9605,-0.9605,-0.8634,-0.8665,-0.874,-0.8802,-0.8856,-0.8912,-0.895,-0.901,-0.9067,-0.9146,-0.9188,-0.9254,-0.933,-0.9439,-0.9487,-0.954,-0.9555,-0.9563,-0.9565,-0.9565,-0.956,-0.9552,-0.9555,-0.9555,-0.9555,-0.9556,-0.9556,0,-0.8611,-0.8662,-0.8718,-0.8802,-0.8851,-0.8888,-0.8959,-0.8997,-0.9054,-0.912,-0.9177,-0.9254,-0.932,-0.9398,-0.947,-0.9498,-0.9521,-0.9514,-0.9513,-0.9524,-0.9542,-0.953,-0.9495,-0.9495,-0.9495,-0.9495,-0.9495,-0.9495,-0.8604,-0.8659,-0.8701,-0.8783,-0.8836,-0.89,-0.8937,-0.8989,-0.9042,-0.9124,-0.918,-0.923,-0.9301,-0.9379,-0.9442,-0.9463,-0.9487,-0.9474,-0.9501,-0.9517,-0.9522,-0.9527,-0.9516,-0.9479,-0.9479,-0.9479,-0.9479,-0.9479]},{"header":{"parameterUnit":"m.s-1","parameterCategory":1,"la1":30.2991,"la2":30.254,"lo1":-89.0895,"lo2":-89.0444,"dy":0.0017,"dx":0.0017,"nx":28,"ny":28,"refTime":"2025-03-31T09:00:00:Z","depth":0,"parameterNumber":3,"parameterNumberName":"V-component_of_WINDS"},"data":[0,0,0,0,0,0,0,0,0,0,0,0,0,0,0,0,0,0,0,0,0,0,0,0,0,0,0,0,0,0,0,0,0,0,0,0,0,0,0,0,0,0,0,0,0,0,0,0,0,0,0,0,0,0,0,0,0,0,5.0466,5.0467,0,5.056,5.0561,5.0562,5.0572,5.0571,5.057,5.0569,5.066,5.0663,5.0667,0,0,0,0,0,0,0,0,0,0,0,0,0,5.0294,5.0297,5.0466,5.0467,5.0469,5.056,5.0561,5.0562,5.0572,5.0571,5.057,5.0569,5.0659,5.0663,5.0667,0,0,0,0,0,0,0,0,0,0,0,0,0,5.0376,5.0298,5.0466,5.0485,5.0487,5.0559,5.0561,5.0562,5.0572,5.0571,5.0569,5.0568,5.0658,5.0663,5.0668,5.0726,0,0,5.0683,5.0685,0,0,0,0,0,0,0,0,5.0372,5.0383,5.0481,5.0483,5.0486,5.0553,5.0534,5.0617,5.0573,5.054,5.0569,5.0567,5.0625,5.0633,5.0653,5.073,5.0734,5.0683,5.0686,5.0688,5.069,0,0,0,0,0,0,0,5.0366,5.0379,5.0503,5.0482,5.0486,5.0488,5.0498,5.055,5.0589,5.0543,5.0544,5.0555,5.0627,5.0648,5.0655,5.0736,5.0683,5.0687,5.069,5.0692,5.0869,5.0871,0,0,0,0,0,0,5.0357,5.0374,5.05,5.0506,5.0425,5.0492,5.0503,5.0533,5.0589,5.0596,5.0556,5.0555,5.0641,5.065,5.0659,5.0734,5.0688,5.0693,5.0696,5.0867,5.0869,5.0871,0,0,0,0,0,0,5.0354,5.0368,5.0496,5.044,5.0457,5.0496,5.053,5.0535,5.0557,5.0599,5.0605,5.0571,5.064,5.0652,5.071,5.0737,5.0695,5.07,5.0865,5.0868,5.087,5.0883,0,0,0,0,0,0,5.0349,5.0367,5.039,5.0441,5.046,5.0547,5.0531,5.0538,5.0566,5.0566,5.0615,5.0622,5.064,5.0703,5.0715,5.0743,5.0703,5.0863,5.0866,5.087,5.088,5.0885,5.089,0,0,0,0,0,5.0342,5.0388,5.0391,5.0406,5.049,5.0549,5.0559,5.0581,5.0568,5.0592,5.0619,5.062,5.0732,5.0709,5.0723,5.0752,5.0862,5.0865,5.0869,5.0878,5.0884,5.089,0,0,0,0,0,0,5.0337,5.0395,5.0399,5.0463,5.0501,5.055,5.058,5.0586,5.0628,5.0625,5.0649,5.066,5.0718,5.0741,5.0714,5.0814,5.0795,5.0802,5.0797,5.0804,5.0808,5.0802,5.0708,0,0,0,0,0,5.0344,5.0388,5.0436,5.0487,5.0506,5.054,5.0567,5.058,5.062,5.0636,5.0667,5.0705,5.0749,5.0777,5.0819,5.0883,5.0895,5.091,5.0915,5.0919,5.0925,5.0963,5.0971,5.0884,5.0884,5.0884,0,0,5.0357,5.0394,5.042,5.0487,5.0518,5.0564,5.0554,5.0601,5.0635,5.0642,5.0701,5.0725,5.0769,5.0832,5.086,5.0852,5.0952,5.0924,5.0927,5.0931,5.0968,5.0976,5.0984,5.0887,5.0886,5.0886,0,0,5.0406,5.0437,5.0485,5.0518,5.0566,5.0589,5.06,5.065,5.0667,5.0726,5.0734,5.0774,5.0848,5.0881,5.0906,5.097,5.0973,5.0983,5.1009,5.1046,5.1053,5.1059,5.1084,5.1092,5.0988,5.0988,5.0988,0,5.0416,5.0485,5.0509,5.0558,5.0588,5.0599,5.0648,5.0678,5.0737,5.0757,5.0747,5.0844,5.0873,5.0945,5.0961,5.098,5.0995,5.0978,5.105,5.1056,5.1063,5.1087,5.1096,5.0989,5.0989,5.0989,5.0989,0,5.0497,5.0545,5.0578,5.0638,5.0671,5.072,5.0751,5.0781,5.0792,5.0816,5.0878,5.0914,5.0966,5.0983,5.0993,5.1057,5.1051,5.1045,5.1028,5.1072,5.1095,5.1104,5.0991,5.0991,5.099,5.099,0,0,5.0544,5.0619,5.063,5.0659,5.0714,5.0752,5.0801,5.0854,5.0881,5.0921,5.0965,5.1029,5.1025,5.1055,5.1068,5.11,5.1152,5.1091,5.1093,5.1103,5.1227,5.1233,5.1243,5.1154,5.1156,5.1157,5.1225,0,5.0601,5.0691,5.0715,5.0791,5.0838,5.085,5.0893,5.0932,5.0956,5.0998,5.1023,5.107,5.106,5.1078,5.1111,5.1139,5.1177,5.1134,5.1195,5.1197,5.1186,5.1255,5.1261,5.1323,5.1234,5.1235,5.1236,0,5.0678,5.0724,5.0806,5.0859,5.0879,5.0918,5.097,5.1009,5.1054,5.1069,5.1104,5.1115,5.1167,5.1146,5.122,5.119,5.1216,5.1234,5.1237,5.1244,5.122,5.1267,5.1343,5.1353,5.125,5.1249,5.1248,0,5.0708,5.0789,5.085,5.0874,5.0936,5.0963,5.099,5.1033,5.1064,5.1109,5.113,5.1179,5.1206,5.1244,5.1269,5.125,5.1341,5.1321,5.1356,5.1355,5.1375,5.1374,5.1458,5.1389,5.1388,5.1388,5.1388,0,5.077,5.082,5.0865,5.0902,5.096,5.0986,5.1042,5.1069,5.1108,5.1151,5.1163,5.1203,5.1232,5.1276,5.1295,5.1354,5.1366,5.138,5.1385,5.138,5.1379,5.1399,5.1396,5.1391,5.139,5.139,5.1389,0,5.0813,5.0844,5.0912,5.0966,5.0981,5.1021,5.1067,5.1104,5.1129,5.1184,5.1198,5.1236,5.1289,5.1318,5.1382,5.1395,5.1463,5.1464,5.1449,5.1451,5.1486,5.1483,5.1588,5.1604,5.1521,5.1521,5.1522,0,5.0851,5.0891,5.0951,5.0982,5.101,5.1058,5.1091,5.1119,5.1152,5.1208,5.1238,5.1292,5.1337,5.1421,5.1454,5.1505,5.1509,5.1542,5.1516,5.1512,5.1512,5.1511,5.1516,5.1547,5.1548,5.1548,5.1549,0,5.0917,5.0932,5.0979,5.1034,5.1073,5.1116,5.1159,5.1183,5.1218,5.1255,5.1311,5.1345,5.1414,5.1468,5.1521,5.1548,5.1555,5.1557,5.1568,5.1565,5.1555,5.1564,5.1464,5.1554,5.1554,5.1553,5.1553,5.1553,5.0961,5.0998,5.1047,5.1101,5.1136,5.1177,5.1215,5.1246,5.1293,5.1353,5.1366,5.1425,5.147,5.1544,5.1572,5.1619,5.1612,5.1627,5.1632,5.1636,5.1639,5.1546,5.1628,5.1628,5.1628,5.1628,5.1628,0,5.103,5.1063,5.1112,5.1173,5.1215,5.1219,5.1267,5.1303,5.1355,5.1398,5.1443,5.1508,5.1561,5.1599,5.1653,5.1683,5.1688,5.1697,5.1696,5.1703,5.164,5.1627,5.1693,5.1693,5.1693,5.1692,5.1692,5.1692,5.1071,5.1136,5.1156,5.1239,5.127,5.133,5.1358,5.1396,5.143,5.1503,5.1548,5.1573,5.1615,5.1673,5.1722,5.1732,5.1752,5.1762,5.1772,5.1713,5.1707,5.17,5.1688,5.1765,5.1765,5.1831,5.1832,5.1832]}]]